sat.trackr.live / text

‹ back to catalog

STARLINK-1762

NORAD 46342 · 2020-062T

PAYLOAD ACTIVE UNKNOWN

§ Identity

Operator
Country
US
Launch date
2020-09-03
Launch site
AFETR
Launch vehicle
Mass (kg)
RCS (m²)

Purposes: comms

External: N2YO · Heavens-Above · Gunter

§ Orbital elements

Epoch: 2026-09-13T03:45:51.719040Z

Period
93.04 min
Inclination
53.1499°
Eccentricity
0.0004695
Mean motion
15.47776569 rev/d
Perigee alt
420.0 km
Apogee alt
426.4 km
Semi-major
6,801.4 km
B*
9.7014e-4
RAAN
209.0997°
Arg perigee
91.4806°
Mean anomaly
268.6740°
Rev number
33,325

§ Raw data

STARLINK-17621 46342U 20062T   26256.15684860  .00051049  00000+0  97014-3 0  99902 46342  53.1499 209.0997 0004695  91.4806 268.6740 15.47776569333256

JSON: /api/v1/satellites/46342 · /tle

For live sub-satellite position, see the globe view (requires WebGL).

§ Visibility from observer

Set your observer location to see the next 7 days of passes ≥ 10°. The values pass through the URL so the page stays shareable.

No JS? Fill the form by hand. The geolocation button needs JavaScript.